This is the latest recevied weather packets stored in our database for station/object N1ORT. If no packets are shown the sender has not sent any weather packets the latest 10 day(s).
| Time | Temp. | Humidity | Pressure | Rain* | Wind** | Luminosity | Snow |
|---|---|---|---|---|---|---|---|
| 1777462231 | 7.22° C | 91% | 1016.9 hPa | 0 mm | - | 84 W/m² | - |
| 1777461927 | 7.22° C | 91% | 1016.5 hPa | 0 mm | - | 78 W/m² | - |
| 1777461624 | 7.22° C | 91% | 1016.7 hPa | 0 mm | - | 71 W/m² | - |
| 1777461319 | 7.22° C | 91% | 1016.5 hPa | 0 mm | - | 70 W/m² | - |
| 1777461015 | 6.67° C | 91% | 1016.5 hPa | 0 mm | - | 66 W/m² | - |
| 1777460711 | 6.67° C | 91% | 1016.4 hPa | 0 mm | - | 57 W/m² | - |
| 1777460407 | 6.67° C | 91% | 1016.5 hPa | 0 mm | - | 46 W/m² | - |
| 1777460103 | 6.67° C | 91% | 1016.7 hPa | 0 mm | - | 41 W/m² | - |
| 1777459800 | 6.67° C | 91% | 1016.8 hPa | 0 mm | - | 35 W/m² | - |
| 1777459497 | 6.67° C | 90% | 1016.8 hPa | 0 mm | - | 29 W/m² | - |
| 1777459194 | 6.67° C | 89% | 1016.8 hPa | 0 mm | - | 25 W/m² | - |
| 1777458887 | 6.67° C | 89% | 1016.5 hPa | 0 mm | - | 21 W/m² | - |
| 1777458582 | 6.67° C | 89% | 1016.7 hPa | 0 mm | - | 16 W/m² | - |
| 1777458273 | 6.67° C | 89% | 1016.4 hPa | 0 mm | - | 14 W/m² | - |
| 1777457968 | 6.67° C | 88% | 1016.3 hPa | 0 mm | - | 13 W/m² | - |
| 1777457664 | 6.67° C | 88% | 1016.2 hPa | 0 mm | - | 12 W/m² | - |
| 1777457358 | 6.67° C | 88% | 1016.1 hPa | 0 mm | - | 11 W/m² | - |
| 1777457054 | 6.67° C | 88% | 1016.1 hPa | 0 mm | - | 8 W/m² | - |
| 1777456750 | 6.67° C | 88% | 1015.7 hPa | 0 mm | - | 7 W/m² | - |
| 1777456449 | 6.67° C | 88% | 1015.6 hPa | 0 mm | - | 5 W/m² | - |
| 1777456147 | 6.67° C | 87% | 1015.6 hPa | 0 mm | - | 3 W/m² | - |
| 1777455841 | 6.67° C | 87% | 1015.8 hPa | 0 mm | - | 2 W/m² | - |
| 1777455539 | 6.67° C | 87% | 1015.8 hPa | 0 mm | - | 1 W/m² | - |
| 1777455235 | 6.67° C | 87% | 1015.7 hPa | 0 mm | - | 0 W/m² | - |
| 1777454932 | 6.67° C | 87% | 1015.8 hPa | 0 mm | - | 0 W/m² | - |
* Rain latest hour (hover to see other rain measurements)
** Current wind speed in m/s (hover to see current wind gust speed)